[[{"header":{"parameterUnit":"m.s-1","parameterCategory":2,"la1":30.2991,"la2":30.254,"lo1":-89.0895,"lo2":-89.0444,"dy":0.0017,"dx":0.0017,"nx":28,"ny":28,"refTime":"2023-08-04T09:00:00:Z","depth":"0","parameterNumber":2,"parameterNumberName":"U-component_of_CURRENTS"},"data":[0,0,0,0,0,0,0,0,0,0,0,0,0,0,0,0,0,0,0,0,0,0,0,0,0,0,0,0,0,0,0,0,0,0,0,0,0,0,0,0,0,0,0,0,0,0,0,0,0,0,0,0,0,0,0,0,0,0,0.2239,0.224,0,0.2319,0.232,0.232,0.2311,0.231,0.2309,0.2309,0.2434,0.2438,0.2442,0,0,0,0,0,0,0,0,0,0,0,0,0,0.2098,0.21,0.2238,0.224,0.2242,0.2319,0.232,0.232,0.2311,0.231,0.2309,0.2308,0.2432,0.2437,0.2442,0,0,0,0,0,0,0,0,0,0,0,0,0,0.2161,0.21,0.2238,0.2251,0.2253,0.2319,0.232,0.232,0.2311,0.231,0.2309,0.2308,0.2431,0.2437,0.2443,0.2501,0,0,0.2461,0.2464,0,0,0,0,0,0,0,0,0.2157,0.2165,0.2247,0.225,0.2253,0.2309,0.2316,0.2385,0.2311,0.2283,0.2309,0.2307,0.2401,0.2409,0.2418,0.2507,0.2513,0.2461,0.2465,0.2468,0.2469,0,0,0,0,0,0,0,0.2153,0.2162,0.2264,0.2249,0.2253,0.226,0.2267,0.2329,0.2343,0.2285,0.2286,0.2305,0.2402,0.2412,0.2421,0.2515,0.2461,0.2467,0.247,0.2473,0.265,0.2651,0,0,0,0,0,0,0.2156,0.2158,0.2262,0.2267,0.2208,0.2264,0.2271,0.2287,0.2341,0.235,0.2306,0.2305,0.2402,0.2414,0.2425,0.2506,0.2468,0.2473,0.2477,0.2649,0.265,0.2651,0,0,0,0,0,0,0.2152,0.2164,0.2259,0.2219,0.2232,0.2268,0.2286,0.229,0.2299,0.2358,0.2366,0.2312,0.2402,0.2417,0.2454,0.2511,0.2476,0.2481,0.2647,0.2649,0.2651,0.2664,0,0,0,0,0,0,0.2148,0.2162,0.2167,0.2219,0.2235,0.2284,0.2288,0.2292,0.2316,0.2314,0.2367,0.2376,0.2402,0.2445,0.246,0.2519,0.2486,0.2646,0.2648,0.265,0.2663,0.2666,0.267,0,0,0,0,0,0.2142,0.2151,0.2167,0.2179,0.2243,0.2285,0.2292,0.231,0.2317,0.2315,0.234,0.2375,0.247,0.245,0.2468,0.2529,0.2645,0.2647,0.265,0.2661,0.2666,0.2669,0,0,0,0,0,0,0.2097,0.2154,0.2171,0.2198,0.2235,0.2285,0.2302,0.2314,0.2335,0.2341,0.2379,0.2391,0.2453,0.248,0.2457,0.2584,0.2569,0.2575,0.2572,0.2577,0.258,0.2618,0.2491,0,0,0,0,0,0.2093,0.2109,0.2168,0.2189,0.2217,0.2262,0.2282,0.2297,0.233,0.2337,0.2368,0.2417,0.2481,0.2513,0.256,0.2626,0.2677,0.268,0.2683,0.2686,0.2728,0.2829,0.2846,0.2659,0.2659,0.2659,0,0,0.2092,0.2118,0.2134,0.218,0.2221,0.2276,0.2269,0.2308,0.2346,0.2354,0.24,0.243,0.2498,0.2564,0.2597,0.2592,0.2757,0.2689,0.2691,0.2733,0.2834,0.2852,0.2869,0.2661,0.2661,0.266,0,0,0.2111,0.2121,0.2158,0.2192,0.2249,0.2276,0.2289,0.2337,0.2347,0.2394,0.2419,0.2473,0.2547,0.261,0.2657,0.2714,0.2769,0.2728,0.2789,0.2885,0.2902,0.2918,0.2971,0.2991,0.2734,0.2734,0.2734,0,0.2119,0.2162,0.2172,0.2226,0.2263,0.2283,0.2343,0.2368,0.2408,0.2431,0.2409,0.2542,0.2587,0.271,0.2729,0.2731,0.2773,0.2765,0.2892,0.2909,0.2925,0.2976,0.2998,0.2735,0.2735,0.2735,0.2735,0,0.2179,0.2217,0.2245,0.2318,0.2346,0.2393,0.2441,0.2458,0.2471,0.2501,0.2582,0.2626,0.2708,0.2736,0.2762,0.2903,0.2889,0.2879,0.2883,0.2945,0.2993,0.3017,0.2736,0.2736,0.2736,0.2735,0,0,0.22,0.2278,0.229,0.2332,0.2396,0.243,0.249,0.2552,0.2596,0.2628,0.2699,0.2806,0.2813,0.2868,0.2898,0.2993,0.3127,0.2992,0.2996,0.3048,0.3318,0.3137,0.3144,0.3137,0.3142,0.3146,0.3293,0,0.2258,0.2367,0.2374,0.2465,0.2532,0.2546,0.2594,0.2642,0.2669,0.2726,0.2795,0.287,0.2868,0.2908,0.3004,0.3124,0.3195,0.3087,0.325,0.3255,0.309,0.3168,0.2978,0.308,0.3316,0.332,0.3323,0,0.232,0.2381,0.2491,0.2546,0.2574,0.2612,0.2678,0.2721,0.28,0.2821,0.2899,0.2934,0.3098,0.3057,0.3296,0.3227,0.3279,0.3345,0.3351,0.3207,0.3118,0.3065,0.3114,0.3112,0.3359,0.3356,0.3354,0,0.235,0.2447,0.2528,0.256,0.2639,0.2663,0.269,0.2754,0.2777,0.2886,0.2915,0.3077,0.3157,0.3297,0.3423,0.3378,0.366,0.3602,0.3474,0.3461,0.3347,0.3314,0.3424,0.3741,0.3741,0.374,0.374,0,0.2413,0.2476,0.2544,0.2597,0.264,0.2691,0.2732,0.2769,0.2836,0.2864,0.2961,0.3017,0.3225,0.3375,0.3479,0.3566,0.3704,0.3519,0.3506,0.3336,0.3301,0.333,0.3288,0.3746,0.3745,0.3744,0.3743,0,0.2445,0.2517,0.2574,0.2643,0.2658,0.2681,0.2709,0.2735,0.2811,0.2855,0.2891,0.3033,0.3227,0.3403,0.3645,0.3602,0.3622,0.3702,0.3463,0.3415,0.3198,0.316,0.3085,0.3029,0.3573,0.3569,0.3567,0,0.2488,0.2531,0.2564,0.2574,0.2598,0.2636,0.2646,0.2709,0.2727,0.2839,0.2858,0.3042,0.3114,0.3392,0.3429,0.3557,0.3541,0.3394,0.325,0.319,0.3143,0.3009,0.2961,0.3112,0.3106,0.31,0.3096,0,0.2521,0.2509,0.2532,0.2524,0.2532,0.2544,0.257,0.2585,0.2653,0.2685,0.2745,0.2817,0.2992,0.3037,0.3171,0.3209,0.3205,0.3277,0.3325,0.288,0.2642,0.2578,0.2996,0.305,0.3055,0.3058,0.3061,0.3063,0.2487,0.2462,0.2451,0.2433,0.2431,0.2429,0.2404,0.2445,0.245,0.2459,0.2576,0.2581,0.2713,0.284,0.2887,0.2822,0.2813,0.2749,0.2739,0.2637,0.2474,0.2743,0.2695,0.2698,0.27,0.2702,0.2703,0,0.2418,0.2398,0.2367,0.2315,0.2259,0.2309,0.2315,0.2273,0.2232,0.2276,0.2278,0.2276,0.2325,0.2459,0.2421,0.2327,0.2258,0.2345,0.2201,0.2209,0.2576,0.245,0.2211,0.2211,0.2211,0.2211,0.2211,0.2211,0.2369,0.2325,0.2285,0.2157,0.2121,0.2026,0.2012,0.1979,0.1979,0.1899,0.1842,0.1883,0.206,0.2133,0.2112,0.208,0.2038,0.1863,0.1991,0.2338,0.2378,0.2417,0.2298,0.2031,0.203,0.154,0.1536,0.1533]},{"header":{"parameterUnit":"m.s-1","parameterCategory":2,"la1":30.2991,"la2":30.254,"lo1":-89.0895,"lo2":-89.0444,"dy":0.0017,"dx":0.0017,"nx":28,"ny":28,"refTime":"2023-08-04T09:00:00:Z","depth":"0","parameterNumber":3,"parameterNumberName":"V-component_of_CURRENTS"},"data":[0,0,0,0,0,0,0,0,0,0,0,0,0,0,0,0,0,0,0,0,0,0,0,0,0,0,0,0,0,0,0,0,0,0,0,0,0,0,0,0,0,0,0,0,0,0,0,0,0,0,0,0,0,0,0,0,0,0,0.1036,0.1037,0,0.1035,0.1035,0.1034,0.0991,0.0991,0.099,0.099,0.0994,0.0995,0.0995,0,0,0,0,0,0,0,0,0,0,0,0,0,0.0971,0.0972,0.1036,0.1037,0.1038,0.1035,0.1035,0.1034,0.0991,0.0991,0.099,0.099,0.0994,0.0995,0.0995,0,0,0,0,0,0,0,0,0,0,0,0,0,0.098,0.0972,0.1036,0.1022,0.1021,0.1036,0.1035,0.1034,0.0991,0.0991,0.099,0.099,0.0994,0.0995,0.0995,0.1011,0,0,0.0997,0.0998,0,0,0,0,0,0,0,0,0.098,0.0982,0.1023,0.1023,0.1022,0.102,0.1014,0.1029,0.0991,0.0994,0.099,0.0989,0.1009,0.1008,0.0998,0.1011,0.1011,0.0997,0.0998,0.0998,0.0998,0,0,0,0,0,0,0,0.0979,0.0981,0.1027,0.1024,0.1024,0.1007,0.1006,0.1016,0.0998,0.0994,0.0993,0.1006,0.1008,0.0997,0.0998,0.1011,0.0997,0.0998,0.0998,0.0999,0.1031,0.1031,0,0,0,0,0,0,0.0998,0.0981,0.1028,0.1028,0.1009,0.1009,0.1008,0.1015,0.0998,0.0997,0.1006,0.1004,0.0996,0.0997,0.0998,0.1044,0.0998,0.0999,0.0999,0.1031,0.1031,0.1032,0,0,0,0,0,0,0.0997,0.1002,0.1028,0.1011,0.1014,0.1012,0.1018,0.1015,0.1021,0.1009,0.1007,0.1019,0.0996,0.0997,0.1019,0.1043,0.0999,0.1,0.103,0.1031,0.1031,0.1119,0,0,0,0,0,0,0.0995,0.1001,0.1007,0.1013,0.1016,0.1061,0.102,0.1016,0.1033,0.103,0.1019,0.1018,0.0995,0.1019,0.102,0.1043,0.1,0.103,0.103,0.1031,0.1115,0.1122,0.1128,0,0,0,0,0,0.0992,0.0996,0.1007,0.1013,0.1026,0.1063,0.1063,0.1053,0.1035,0.1052,0.1036,0.1019,0.1024,0.102,0.1022,0.1046,0.1029,0.103,0.1031,0.1112,0.1121,0.1128,0,0,0,0,0,0,0.0975,0.0994,0.1005,0.1017,0.1056,0.106,0.1069,0.107,0.1068,0.1056,0.1038,0.1037,0.1062,0.1041,0.1038,0.1053,0.1019,0.102,0.108,0.1088,0.1094,0.1095,0.1001,0,0,0,0,0,0.0979,0.0978,0.1021,0.1033,0.1058,0.1071,0.1082,0.1081,0.1086,0.1084,0.1079,0.1063,0.1065,0.1068,0.1063,0.1084,0.1053,0.1093,0.11,0.1106,0.1105,0.1085,0.109,0.1035,0.1035,0.1035,0,0,0.098,0.0987,0.0992,0.103,0.1051,0.109,0.1074,0.1101,0.112,0.1087,0.1103,0.1096,0.1076,0.1092,0.11,0.1081,0.1105,0.1107,0.1112,0.1108,0.1086,0.1092,0.1097,0.1036,0.1036,0.1035,0,0,0.0996,0.0995,0.102,0.1051,0.1095,0.11,0.1122,0.1146,0.1148,0.1176,0.1147,0.1149,0.1162,0.114,0.1134,0.1173,0.1144,0.118,0.1215,0.1197,0.1201,0.1205,0.1177,0.1177,0.1179,0.1179,0.1179,0,0.1015,0.1044,0.1038,0.1079,0.1111,0.1116,0.1171,0.1169,0.1192,0.1211,0.1192,0.1194,0.1176,0.1189,0.1196,0.1188,0.1177,0.1193,0.1207,0.121,0.1212,0.1182,0.1181,0.1183,0.1183,0.1182,0.1182,0,0.1059,0.1093,0.1113,0.1159,0.118,0.1229,0.1244,0.1261,0.1263,0.1272,0.1298,0.1261,0.1265,0.1257,0.1242,0.1255,0.1242,0.1224,0.1192,0.1223,0.1189,0.1187,0.1189,0.1188,0.1187,0.1186,0,0,0.1089,0.1148,0.1159,0.12,0.1234,0.126,0.1286,0.134,0.1372,0.1362,0.1405,0.1378,0.1364,0.1352,0.1324,0.1299,0.1301,0.128,0.1277,0.126,0.1267,0.1294,0.1293,0.1302,0.1302,0.1302,0.1239,0,0.1157,0.1259,0.1251,0.1328,0.1385,0.1382,0.1411,0.1431,0.1447,0.1479,0.1436,0.1459,0.1398,0.1409,0.1374,0.1346,0.1299,0.1319,0.1231,0.1228,0.1255,0.1293,0.1236,0.1179,0.1236,0.1236,0.1235,0,0.1197,0.1267,0.1376,0.1434,0.146,0.1486,0.1537,0.1566,0.159,0.1605,0.16,0.1579,0.1556,0.1485,0.141,0.1439,0.1351,0.1296,0.1292,0.1284,0.1251,0.1154,0.1172,0.1104,0.1231,0.1232,0.1232,0,0.1215,0.1329,0.1423,0.145,0.1523,0.1554,0.1584,0.1613,0.1649,0.1685,0.1723,0.1683,0.1674,0.1579,0.1487,0.1455,0.1403,0.1334,0.1252,0.1252,0.1166,0.1159,0.1111,0.1235,0.1235,0.1235,0.1235,0,0.1262,0.1324,0.1445,0.1493,0.1574,0.16,0.1672,0.1695,0.1748,0.1801,0.1788,0.1818,0.17,0.1664,0.1539,0.1432,0.1439,0.1267,0.1246,0.1196,0.1193,0.1099,0.1028,0.1233,0.1233,0.1234,0.1234,0,0.1228,0.1329,0.1411,0.1535,0.1575,0.1612,0.1707,0.1765,0.1825,0.189,0.1908,0.1927,0.1899,0.1786,0.1648,0.1511,0.1348,0.1334,0.1291,0.1267,0.111,0.1044,0.0999,0.0989,0.1212,0.1212,0.1213,0,0.1224,0.1282,0.1417,0.1464,0.1517,0.1606,0.1675,0.1771,0.1839,0.1954,0.1991,0.201,0.2018,0.1878,0.1654,0.1457,0.1373,0.127,0.1174,0.1113,0.1023,0.1037,0.1033,0.1077,0.1076,0.1076,0.1075,0,0.1204,0.1246,0.1315,0.1421,0.1503,0.1608,0.1722,0.1794,0.1916,0.1991,0.2088,0.2117,0.2007,0.1817,0.1601,0.1451,0.1234,0.125,0.1184,0.0922,0.0932,0.091,0.1108,0.107,0.107,0.1071,0.1071,0.1071,0.1157,0.118,0.1277,0.1352,0.1462,0.1594,0.167,0.1813,0.193,0.2059,0.2107,0.2141,0.1923,0.1624,0.1465,0.115,0.1158,0.0994,0.0918,0.0943,0.0944,0.1152,0.1107,0.1107,0.1108,0.1109,0.1109,0,0.1108,0.1153,0.1216,0.1326,0.1422,0.1515,0.1692,0.1772,0.1908,0.2048,0.2126,0.199,0.1713,0.1469,0.1025,0.0812,0.0795,0.0751,0.0711,0.0721,0.0879,0.0885,0.0797,0.0797,0.0797,0.0797,0.0797,0.0797,0.1082,0.1124,0.1155,0.127,0.1361,0.15,0.16,0.1732,0.1851,0.1957,0.1977,0.203,0.1873,0.1101,0.0661,0.0577,0.0487,0.0472,0.0494,0.0526,0.0543,0.0558,0.0552,0.0395,0.0394,0.0377,0.0376,0.0375]}],[{"header":{"parameterUnit":"m.s-1","parameterCategory":2,"la1":30.2991,"la2":30.254,"lo1":-89.0895,"lo2":-89.0444,"dy":0.0017,"dx":0.0017,"nx":28,"ny":28,"refTime":"2023-08-04T09:00:00:Z","depth":"2","parameterNumber":2,"parameterNumberName":"U-component_of_CURRENTS"},"data":[0,0,0,0,0,0,0,0,0,0,0,0,0,0,0,0,0,0,0,0,0,0,0,0,0,0,0,0,0,0,0,0,0,0,0,0,0,0,0,0,0,0,0,0,0,0,0,0,0,0,0,0,0,0,0,0,0,0,0.165,0.1649,0,0.1783,0.1786,0.179,0.2013,0.2014,0.2016,0.2018,0.1913,0.1909,0.1905,0,0,0,0,0,0,0,0,0,0,0,0,0,0.1536,0.1539,0.165,0.1649,0.1649,0.1782,0.1787,0.1791,0.2012,0.2014,0.2017,0.2019,0.1915,0.191,0.1904,0,0,0,0,0,0,0,0,0,0,0,0,0,0.1643,0.154,0.165,0.1756,0.1765,0.1781,0.1787,0.1792,0.2012,0.2015,0.2017,0.202,0.1917,0.191,0.1904,0.1811,0,0,0.1884,0.1881,0,0,0,0,0,0,0,0,0.1637,0.1651,0.1741,0.1748,0.1758,0.1861,0.1707,0.1778,0.2011,0.1946,0.2018,0.2021,0.1854,0.1853,0.1914,0.1806,0.1802,0.1883,0.1879,0.1876,0.1874,0,0,0,0,0,0,0,0.163,0.1646,0.1729,0.1739,0.175,0.1776,0.1798,0.1724,0.19,0.1952,0.1962,0.1934,0.1862,0.192,0.1911,0.18,0.1883,0.1877,0.1873,0.1871,0.1803,0.1805,0,0,0,0,0,0,0.1561,0.1639,0.1725,0.1731,0.1673,0.1775,0.18,0.1847,0.1906,0.1912,0.1931,0.1943,0.193,0.1919,0.1908,0.1958,0.1876,0.187,0.1866,0.1801,0.1804,0.1806,0,0,0,0,0,0,0.156,0.1571,0.1719,0.1662,0.168,0.1772,0.1823,0.1847,0.1923,0.1888,0.1897,0.198,0.1931,0.1917,0.1884,0.1948,0.1867,0.1861,0.1798,0.1802,0.1805,0.1953,0,0,0,0,0,0,0.1557,0.1572,0.1601,0.166,0.1679,0.1704,0.1818,0.1847,0.1887,0.1906,0.193,0.1925,0.1932,0.1895,0.1878,0.1937,0.1856,0.1796,0.18,0.1804,0.1946,0.1961,0.1974,0,0,0,0,0,0.1554,0.1552,0.1605,0.1613,0.1715,0.1698,0.1714,0.1803,0.1886,0.1893,0.1952,0.1925,0.1911,0.1889,0.1869,0.1929,0.1794,0.1799,0.1803,0.1939,0.1958,0.1974,0,0,0,0,0,0,0.1538,0.1574,0.1633,0.1655,0.1663,0.1725,0.1745,0.1796,0.1862,0.1923,0.1914,0.1909,0.1922,0.1879,0.1856,0.1926,0.186,0.1861,0.1971,0.1987,0.2002,0.2041,0.1851,0,0,0,0,0,0.1535,0.1575,0.1578,0.1619,0.1611,0.1688,0.1703,0.1775,0.1814,0.1857,0.1878,0.1912,0.1922,0.1916,0.1912,0.1898,0.1862,0.1936,0.195,0.1963,0.1984,0.1966,0.1981,0.1822,0.1822,0.1822,0,0,0.1531,0.1573,0.1589,0.1618,0.1666,0.1691,0.1715,0.1757,0.1837,0.1815,0.1942,0.194,0.1926,0.1974,0.1975,0.1946,0.1993,0.1969,0.198,0.1995,0.1973,0.1988,0.2002,0.1825,0.1824,0.1824,0,0,0.1532,0.1593,0.1605,0.1637,0.1679,0.171,0.1706,0.1777,0.1863,0.1923,0.1976,0.2007,0.2004,0.205,0.2057,0.212,0.2065,0.2123,0.2229,0.2212,0.2225,0.2236,0.2224,0.2233,0.2136,0.2137,0.2137,0,0.1537,0.1574,0.1595,0.1644,0.1665,0.1713,0.1731,0.1826,0.1903,0.1946,0.1977,0.2074,0.206,0.2126,0.2203,0.2156,0.2135,0.2167,0.2231,0.2241,0.225,0.2235,0.2242,0.2144,0.2144,0.2143,0.2142,0,0.1527,0.1599,0.1609,0.1705,0.1727,0.175,0.1831,0.1931,0.202,0.2075,0.2165,0.2198,0.2231,0.2268,0.2268,0.2342,0.2304,0.2246,0.2189,0.2275,0.2253,0.2259,0.2156,0.2153,0.215,0.2149,0,0,0.1511,0.1561,0.1615,0.163,0.1763,0.1756,0.1934,0.1992,0.2083,0.2206,0.2275,0.2387,0.2386,0.2398,0.2407,0.2451,0.2515,0.2404,0.2399,0.2397,0.2489,0.2128,0.2098,0.2467,0.2469,0.247,0.2454,0,0.151,0.1554,0.1601,0.1674,0.1678,0.181,0.192,0.2043,0.2153,0.2243,0.2335,0.2389,0.2434,0.2465,0.2514,0.2501,0.2534,0.2525,0.2402,0.2399,0.207,0.2093,0.2085,0.2039,0.2458,0.2459,0.246,0,0.1543,0.1551,0.1584,0.1621,0.1629,0.1686,0.1854,0.1974,0.2158,0.226,0.2383,0.2399,0.2514,0.2516,0.2582,0.2573,0.2553,0.2561,0.2557,0.217,0.2045,0.2018,0.2032,0.2467,0.2467,0.2466,0.2466,0,0.1531,0.1568,0.1559,0.1601,0.1654,0.1711,0.1767,0.1976,0.2057,0.2287,0.234,0.2448,0.2493,0.2532,0.2489,0.2566,0.2487,0.2562,0.223,0.2206,0.2145,0.2107,0.2585,0.2585,0.2585,0.2585,0.2585,0,0.1518,0.1515,0.1537,0.1558,0.1533,0.1646,0.169,0.1866,0.2029,0.2085,0.2306,0.2309,0.2502,0.2437,0.2458,0.228,0.2427,0.2244,0.2164,0.219,0.2158,0.2481,0.2469,0.2585,0.2585,0.2585,0.2585,0,0.151,0.1507,0.152,0.1559,0.1539,0.1576,0.1598,0.1659,0.1882,0.1993,0.2059,0.2206,0.2153,0.2191,0.2203,0.2168,0.2077,0.1956,0.1951,0.1865,0.187,0.1867,0.1732,0.1718,0.1707,0.1698,0.169,0,0.1475,0.1515,0.1576,0.1558,0.1542,0.1541,0.1547,0.1644,0.169,0.1858,0.186,0.186,0.1775,0.1607,0.1588,0.1514,0.1645,0.1428,0.1563,0.184,0.1778,0.1792,0.1804,0.1608,0.16,0.1594,0.1589,0,0.1458,0.1552,0.1548,0.1579,0.1531,0.1458,0.1437,0.1389,0.1534,0.1602,0.1621,0.1558,0.1403,0.1281,0.1085,0.1043,0.1458,0.128,0.1583,0.1728,0.1693,0.164,0.1664,0.1531,0.1537,0.1541,0.1544,0.1547,0.1456,0.151,0.1593,0.1577,0.1539,0.1443,0.1355,0.1262,0.123,0.127,0.1272,0.1216,0.1158,0.084,0.0752,0.0788,0.089,0.1013,0.105,0.109,0.0981,0.0916,0.0594,0.0595,0.0595,0.0595,0.0595,0,0.1458,0.153,0.157,0.1513,0.148,0.1491,0.1349,0.1216,0.1095,0.1049,0.1028,0.0888,0.0683,0.0652,0.0658,0.0597,0.079,0.0578,0.0944,0.0993,0.1039,0.0946,0.0542,0.0542,0.0542,0.0542,0,0,0.1384,0.1416,0.1483,0.145,0.149,0.1388,0.1327,0.1097,0.0988,0.0793,0.0771,0.0652,0.066,0.0626,0.0577,0.0616,0.0826,0.058,0.062,0.1104,0.1152,0.1261,0.1161,0,0,0,0,0]},{"header":{"parameterUnit":"m.s-1","parameterCategory":2,"la1":30.2991,"la2":30.254,"lo1":-89.0895,"lo2":-89.0444,"dy":0.0017,"dx":0.0017,"nx":28,"ny":28,"refTime":"2023-08-04T09:00:00:Z","depth":"2","parameterNumber":3,"parameterNumberName":"V-component_of_CURRENTS"},"data":[0,0,0,0,0,0,0,0,0,0,0,0,0,0,0,0,0,0,0,0,0,0,0,0,0,0,0,0,0,0,0,0,0,0,0,0,0,0,0,0,0,0,0,0,0,0,0,0,0,0,0,0,0,0,0,0,0,0,0.0332,0.0331,0,0.0411,0.0414,0.0418,0.0622,0.0623,0.0624,0.0626,0.0384,0.0377,0.0369,0,0,0,0,0,0,0,0,0,0,0,0,0,0.0344,0.0345,0.0332,0.033,0.0329,0.041,0.0415,0.0419,0.0621,0.0623,0.0625,0.0626,0.0387,0.0378,0.0368,0,0,0,0,0,0,0,0,0,0,0,0,0,0.0402,0.0346,0.0333,0.0416,0.0422,0.041,0.0415,0.042,0.0621,0.0623,0.0625,0.0627,0.039,0.0379,0.0367,0.0252,0,0,0.0331,0.0326,0,0,0,0,0,0,0,0,0.0399,0.0406,0.0406,0.041,0.0416,0.0481,0.0328,0.0337,0.062,0.0579,0.0626,0.0628,0.0364,0.0355,0.0415,0.0241,0.0231,0.033,0.0323,0.0318,0.0315,0,0,0,0,0,0,0,0.0395,0.0403,0.0396,0.0403,0.0409,0.0442,0.0457,0.0335,0.0477,0.0583,0.059,0.0547,0.037,0.0427,0.0409,0.0227,0.0331,0.032,0.0313,0.0309,0.0075,0.0076,0,0,0,0,0,0,0.0319,0.0399,0.0393,0.0395,0.0377,0.0438,0.0456,0.0484,0.0486,0.0482,0.0545,0.0556,0.0445,0.0423,0.04,0.0406,0.0318,0.0308,0.0301,0.0074,0.0075,0.0076,0,0,0,0,0,0,0.0321,0.0321,0.0389,0.0369,0.0376,0.0432,0.0464,0.0484,0.0571,0.0455,0.0452,0.0611,0.0446,0.0417,0.0364,0.0391,0.0302,0.0292,0.0073,0.0074,0.0076,0.032,0,0,0,0,0,0,0.0323,0.0324,0.0354,0.0366,0.0373,0.037,0.0459,0.0482,0.0523,0.0541,0.0507,0.0488,0.0446,0.0383,0.0353,0.0373,0.0283,0.0072,0.0074,0.0075,0.0311,0.033,0.0346,0,0,0,0,0,0.0324,0.0313,0.0358,0.0355,0.0405,0.0365,0.0377,0.0443,0.0524,0.0543,0.0573,0.0491,0.037,0.0375,0.0339,0.0357,0.0072,0.0073,0.0075,0.0304,0.0326,0.0345,0,0,0,0,0,0,0.0354,0.0329,0.038,0.0376,0.0368,0.0387,0.0407,0.0452,0.0508,0.0553,0.0498,0.0478,0.0449,0.0348,0.0355,0.0291,0.0204,0.0199,0.039,0.0409,0.0426,0.0427,0.0273,0,0,0,0,0,0.0361,0.0368,0.0338,0.0355,0.0345,0.0397,0.0405,0.0449,0.0463,0.0502,0.0502,0.0474,0.042,0.0378,0.0319,0.0254,0.0146,0.0239,0.0257,0.0272,0.0247,0.0127,0.0131,0.0082,0.0082,0.0082,0,0,0.0363,0.0367,0.0365,0.0361,0.0394,0.0388,0.042,0.0434,0.0494,0.0442,0.0565,0.0528,0.0419,0.0411,0.0381,0.0331,0.024,0.0275,0.029,0.0254,0.0129,0.0134,0.0138,0.0083,0.0083,0.0082,0,0,0.0358,0.0397,0.0393,0.0396,0.04,0.0405,0.0402,0.0454,0.055,0.0594,0.0609,0.059,0.0525,0.0487,0.0437,0.0476,0.0345,0.0462,0.0536,0.0423,0.0426,0.0427,0.0353,0.0345,0.0461,0.0461,0.0461,0,0.0372,0.0383,0.0381,0.0396,0.0385,0.0411,0.0403,0.0491,0.0549,0.0608,0.0645,0.0631,0.0555,0.0508,0.0572,0.0513,0.0448,0.0484,0.0448,0.0446,0.0443,0.0365,0.0354,0.0473,0.0472,0.047,0.0469,0,0.0347,0.0389,0.0386,0.0422,0.0413,0.0405,0.0453,0.057,0.0667,0.071,0.0761,0.0722,0.0682,0.0683,0.0648,0.0601,0.0568,0.0502,0.0409,0.0464,0.0378,0.0362,0.049,0.0486,0.0482,0.0479,0,0,0.0321,0.0347,0.0374,0.0387,0.0424,0.0396,0.0545,0.0596,0.0693,0.0786,0.0848,0.0838,0.0824,0.0765,0.0723,0.0661,0.0628,0.0604,0.0592,0.0552,0.0421,0.0466,0.0451,0.0579,0.0576,0.0574,0.0392,0,0.0316,0.0323,0.034,0.0361,0.0348,0.0444,0.0532,0.0622,0.074,0.0828,0.0828,0.0844,0.0845,0.0849,0.0784,0.0638,0.0587,0.0684,0.0349,0.0339,0.0389,0.0433,0.0413,0.0255,0.0375,0.0372,0.037,0,0.0307,0.0306,0.0312,0.0327,0.0328,0.0345,0.049,0.0591,0.0739,0.0856,0.0908,0.0885,0.0826,0.0821,0.0611,0.0685,0.0577,0.0487,0.0475,0.0404,0.0351,0.0201,0.0218,0.034,0.0342,0.0345,0.0347,0,0.0293,0.0291,0.0283,0.0297,0.0323,0.0388,0.0425,0.0596,0.0702,0.0885,0.0954,0.0875,0.0851,0.0688,0.0525,0.0568,0.0274,0.0272,0.0218,0.022,0.007,0.0065,0.0125,0.0125,0.0126,0.0126,0.0127,0,0.0275,0.0256,0.0271,0.0296,0.0277,0.0331,0.0395,0.0567,0.0696,0.0782,0.0924,0.0934,0.0826,0.066,0.0494,0.0294,0.0224,0.0228,0.0169,0.0164,0.0169,0.0116,0.0117,0.012,0.0121,0.0122,0.0124,0,0.0269,0.0263,0.0273,0.0309,0.0296,0.0319,0.036,0.0445,0.0642,0.0782,0.084,0.0926,0.0795,0.0636,0.0358,0.0279,0.0053,0.0002,0.0043,-0.0004,0.0096,0.0112,-0.0057,-0.0057,-0.0057,-0.0058,-0.0058,0,0.0213,0.0266,0.0347,0.0347,0.035,0.0348,0.038,0.047,0.0555,0.0751,0.0782,0.0769,0.0734,0.0393,0.0241,-0.0005,-0.0012,-0.0109,-0.0019,0.0115,0.0073,0.0089,0.0105,-0.0118,-0.0119,-0.0119,-0.012,0,0.0186,0.0304,0.0355,0.0426,0.0414,0.0388,0.041,0.0421,0.058,0.0702,0.0806,0.0779,0.0591,0.0355,0.0119,-0.0036,-0.0062,-0.0116,-0.0086,-0.0026,0.0053,0.0015,0.0032,-0.0124,-0.0123,-0.0123,-0.0123,-0.0123,0.0189,0.0276,0.045,0.0484,0.0507,0.0513,0.0499,0.0499,0.0578,0.0723,0.0682,0.0685,0.0455,0.015,-0.0039,-0.0094,-0.007,-0.0115,-0.0114,-0.0113,-0.0044,0.0035,-0.0132,-0.0132,-0.0132,-0.0131,-0.0131,0,0.0223,0.0365,0.0466,0.0526,0.0598,0.061,0.0605,0.0578,0.0659,0.0662,0.0709,0.0494,0.0235,0.0049,-0.0033,-0.0123,-0.0124,-0.0148,-0.0157,-0.0154,-0.0151,-0.0084,-0.0183,-0.0183,-0.0183,-0.0183,0,0,0.0215,0.0326,0.0447,0.0584,0.0699,0.0764,0.0795,0.074,0.0709,0.0659,0.0631,0.0422,0.0221,0.0106,-0.0056,-0.0078,-0.0067,-0.0078,-0.0033,-0.0023,-0.0017,-0.0142,-0.0035,0,0,0,0,0]}],[{"header":{"parameterUnit":"m.s-1","parameterCategory":2,"la1":30.2991,"la2":30.254,"lo1":-89.0895,"lo2":-89.0444,"dy":0.0017,"dx":0.0017,"nx":28,"ny":28,"refTime":"2023-08-04T09:00:00:Z","depth":"4","parameterNumber":2,"parameterNumberName":"U-component_of_CURRENTS"},"data":[0,0,0,0,0,0,0,0,0,0,0,0,0,0,0,0,0,0,0,0,0,0,0,0,0,0,0,0,0,0,0,0,0,0,0,0,0,0,0,0,0,0,0,0,0,0,0,0,0,0,0,0,0,0,0,0,0,0,-0.0529,-0.053,0,-0.0601,-0.0602,-0.0603,-0.0638,-0.0638,-0.0638,-0.0638,-0.0689,-0.069,-0.0691,0,0,0,0,0,0,0,0,0,0,0,0,0,-0.0508,-0.0508,-0.0529,-0.053,-0.0531,-0.0601,-0.0602,-0.0603,-0.0638,-0.0638,-0.0638,-0.0638,-0.0688,-0.069,-0.0692,0,0,0,0,0,0,0,0,0,0,0,0,0,-0.0542,-0.0508,-0.0529,-0.0557,-0.056,-0.0601,-0.0602,-0.0603,-0.0638,-0.0638,-0.0638,-0.0638,-0.0688,-0.069,-0.0692,-0.0705,0,0,-0.0698,-0.0699,0,0,0,0,0,0,0,0,-0.054,-0.0543,-0.0552,-0.0555,-0.0558,-0.061,-0.0613,-0.0636,-0.0638,-0.0609,-0.0638,-0.0638,-0.066,-0.0665,-0.0679,-0.0708,-0.071,-0.0698,-0.07,-0.07,-0.0701,0,0,0,0,0,0,0,-0.0538,-0.0541,-0.0558,-0.0552,-0.0557,-0.0595,-0.0599,-0.0618,-0.0634,-0.0611,-0.0614,-0.0621,-0.0662,-0.0677,-0.068,-0.0711,-0.0698,-0.07,-0.0701,-0.0702,-0.0811,-0.0812,0,0,0,0,0,0,-0.0524,-0.0538,-0.0556,-0.056,-0.0549,-0.0595,-0.06,-0.0594,-0.0634,-0.064,-0.0621,-0.0623,-0.0673,-0.0678,-0.0682,-0.0744,-0.07,-0.0702,-0.0704,-0.0809,-0.0811,-0.0813,0,0,0,0,0,0,-0.0523,-0.0524,-0.0553,-0.0551,-0.0558,-0.0595,-0.0589,-0.0595,-0.0614,-0.0642,-0.0648,-0.0634,-0.0674,-0.0679,-0.0706,-0.0745,-0.0703,-0.0705,-0.0807,-0.081,-0.0812,-0.084,0,0,0,0,0,0,-0.0522,-0.0523,-0.0526,-0.055,-0.0557,-0.0575,-0.0589,-0.0597,-0.0619,-0.0622,-0.0654,-0.0659,-0.0674,-0.0703,-0.0708,-0.0747,-0.0707,-0.0805,-0.0808,-0.0811,-0.0837,-0.0843,-0.0848,0,0,0,0,0,-0.052,-0.0511,-0.0525,-0.0529,-0.0555,-0.0575,-0.0582,-0.0609,-0.0619,-0.0627,-0.0653,-0.0658,-0.0727,-0.0705,-0.0711,-0.0751,-0.0804,-0.0807,-0.0811,-0.0834,-0.0842,-0.0848,0,0,0,0,0,0,-0.0505,-0.0514,-0.0531,-0.0526,-0.0552,-0.058,-0.0602,-0.0611,-0.0639,-0.0639,-0.0667,-0.0674,-0.0718,-0.0727,-0.0702,-0.0794,-0.0771,-0.0776,-0.0787,-0.0795,-0.08,-0.075,-0.0708,0,0,0,0,0,-0.0503,-0.0501,-0.0522,-0.0525,-0.0542,-0.0575,-0.0591,-0.0594,-0.0618,-0.0631,-0.0662,-0.0697,-0.0739,-0.0756,-0.0787,-0.0825,-0.0798,-0.086,-0.0866,-0.087,-0.0836,-0.0855,-0.0858,-0.0825,-0.0825,-0.0825,0,0,-0.05,-0.0507,-0.0507,-0.0523,-0.0556,-0.0567,-0.0585,-0.0597,-0.0607,-0.0631,-0.0672,-0.0713,-0.0752,-0.0804,-0.0825,-0.0814,-0.0864,-0.0875,-0.0879,-0.084,-0.0859,-0.0861,-0.0864,-0.0827,-0.0827,-0.0827,0,0,-0.0502,-0.0504,-0.0515,-0.0524,-0.0551,-0.0562,-0.0564,-0.0594,-0.0617,-0.0647,-0.0684,-0.0732,-0.0792,-0.0832,-0.0858,-0.0908,-0.0893,-0.0943,-0.0931,-0.0952,-0.0954,-0.0955,-0.0908,-0.0905,-0.0947,-0.0947,-0.0947,0,-0.0509,-0.051,-0.0524,-0.0534,-0.054,-0.0559,-0.0565,-0.0587,-0.0619,-0.064,-0.0657,-0.077,-0.0801,-0.0871,-0.0892,-0.0919,-0.0904,-0.0903,-0.0956,-0.0957,-0.0958,-0.0909,-0.0905,-0.0949,-0.0949,-0.0948,-0.0948,0,-0.0505,-0.0518,-0.0527,-0.0542,-0.0547,-0.0549,-0.0568,-0.0585,-0.0615,-0.064,-0.0716,-0.0778,-0.0839,-0.0883,-0.0897,-0.0946,-0.0923,-0.096,-0.0931,-0.0962,-0.091,-0.0905,-0.0951,-0.0951,-0.095,-0.095,0,0,-0.0502,-0.0523,-0.0532,-0.0546,-0.0541,-0.0548,-0.0557,-0.0583,-0.06,-0.0659,-0.0701,-0.0796,-0.0833,-0.0864,-0.0923,-0.0941,-0.0935,-0.0946,-0.0947,-0.0881,-0.093,-0.0882,-0.0872,-0.0992,-0.0992,-0.0992,-0.0884,0,-0.0513,-0.0533,-0.0529,-0.0545,-0.0558,-0.0553,-0.0568,-0.0578,-0.0607,-0.0648,-0.0723,-0.0788,-0.0831,-0.0877,-0.0904,-0.0938,-0.0927,-0.0956,-0.0922,-0.0919,-0.086,-0.0868,-0.0992,-0.088,-0.0879,-0.0878,-0.0877,0,-0.0512,-0.0527,-0.0551,-0.056,-0.0567,-0.0567,-0.0576,-0.0583,-0.0617,-0.0646,-0.0705,-0.0761,-0.0816,-0.0849,-0.0884,-0.0906,-0.0896,-0.0908,-0.0906,-0.0839,-0.0864,-0.0848,-0.0868,-0.0869,-0.087,-0.087,-0.0871,0,-0.0515,-0.0538,-0.0563,-0.056,-0.0572,-0.0581,-0.0575,-0.0589,-0.0599,-0.064,-0.0657,-0.0736,-0.0787,-0.0805,-0.0839,-0.0859,-0.0847,-0.0885,-0.0816,-0.081,-0.0871,-0.0871,-0.0865,-0.0865,-0.0866,-0.0866,-0.0866,0,-0.0515,-0.0532,-0.0571,-0.0582,-0.0596,-0.0588,-0.0599,-0.0601,-0.0608,-0.0611,-0.0665,-0.0693,-0.0782,-0.0803,-0.0808,-0.079,-0.0825,-0.078,-0.0784,-0.0884,-0.0887,-0.0865,-0.0867,-0.0862,-0.0863,-0.0864,-0.0864,0,-0.0513,-0.0544,-0.0578,-0.0608,-0.0605,-0.0615,-0.0595,-0.0592,-0.06,-0.0599,-0.0613,-0.0663,-0.0678,-0.0729,-0.0752,-0.0752,-0.0739,-0.0717,-0.0765,-0.078,-0.0678,-0.0682,-0.0601,-0.0599,-0.0597,-0.0595,-0.0594,0,-0.0513,-0.0534,-0.0594,-0.0609,-0.0624,-0.0623,-0.0606,-0.0594,-0.0575,-0.0575,-0.0568,-0.0596,-0.0627,-0.059,-0.0661,-0.064,-0.0654,-0.0623,-0.0683,-0.064,-0.0653,-0.0661,-0.0668,-0.059,-0.059,-0.0589,-0.0589,0,-0.0502,-0.0546,-0.0581,-0.0616,-0.0624,-0.06,-0.0569,-0.0547,-0.0521,-0.055,-0.0497,-0.05,-0.0508,-0.0538,-0.0536,-0.0535,-0.064,-0.0601,-0.0606,-0.0662,-0.0626,-0.0643,-0.0652,-0.0581,-0.0583,-0.0583,-0.0584,0,-0.0503,-0.0527,-0.0587,-0.0609,-0.061,-0.0553,-0.0543,-0.0486,-0.0459,-0.0442,-0.0429,-0.0443,-0.0484,-0.048,-0.0479,-0.0478,-0.0476,-0.0473,-0.0484,-0.0493,-0.0522,-0.0465,-0.0348,0,0,0,0,0,-0.0491,-0.0512,-0.0544,-0.056,-0.0555,-0.0536,-0.05,-0.0485,-0.0467,-0.0404,-0.04,-0.039,-0.0381,-0.0405,-0.0382,-0.046,-0.0499,-0.0435,-0.0506,-0.0541,-0.055,-0.0602,0,0,0,0,0,0,-0.0486,-0.0527,-0.0544,-0.0507,-0.0484,-0.0443,-0.0412,-0.0397,-0.0353,-0.0354,-0.0348,-0.0366,-0.0372,-0.0381,-0.0374,-0.0382,-0.0418,-0.0452,-0.0451,-0.0536,-0.0544,-0.0551,-0.0608,0,0,0,0,0]},{"header":{"parameterUnit":"m.s-1","parameterCategory":2,"la1":30.2991,"la2":30.254,"lo1":-89.0895,"lo2":-89.0444,"dy":0.0017,"dx":0.0017,"nx":28,"ny":28,"refTime":"2023-08-04T09:00:00:Z","depth":"4","parameterNumber":3,"parameterNumberName":"V-component_of_CURRENTS"},"data":[0,0,0,0,0,0,0,0,0,0,0,0,0,0,0,0,0,0,0,0,0,0,0,0,0,0,0,0,0,0,0,0,0,0,0,0,0,0,0,0,0,0,0,0,0,0,0,0,0,0,0,0,0,0,0,0,0,0,-0.0183,-0.0184,0,-0.024,-0.0241,-0.0242,-0.0266,-0.0266,-0.0265,-0.0265,-0.035,-0.0353,-0.0356,0,0,0,0,0,0,0,0,0,0,0,0,0,-0.0154,-0.0154,-0.0183,-0.0184,-0.0184,-0.0239,-0.0241,-0.0242,-0.0266,-0.0266,-0.0265,-0.0264,-0.0349,-0.0353,-0.0356,0,0,0,0,0,0,0,0,0,0,0,0,0,-0.0189,-0.0154,-0.0183,-0.0199,-0.02,-0.0239,-0.0241,-0.0242,-0.0266,-0.0266,-0.0265,-0.0264,-0.0348,-0.0352,-0.0356,-0.0399,0,0,-0.0369,-0.0371,0,0,0,0,0,0,0,0,-0.0187,-0.019,-0.0196,-0.0198,-0.02,-0.024,-0.0261,-0.0294,-0.0267,-0.0247,-0.0265,-0.0264,-0.0314,-0.0321,-0.034,-0.0403,-0.0407,-0.037,-0.0372,-0.0374,-0.0375,0,0,0,0,0,0,0,-0.0184,-0.0188,-0.0211,-0.0197,-0.0198,-0.0222,-0.0226,-0.0268,-0.0289,-0.0248,-0.0249,-0.0247,-0.0315,-0.0336,-0.0342,-0.0408,-0.0369,-0.0373,-0.0376,-0.0377,-0.0527,-0.0529,0,0,0,0,0,0,-0.0165,-0.0186,-0.0209,-0.0212,-0.0185,-0.0223,-0.0228,-0.0232,-0.0288,-0.0293,-0.0248,-0.0248,-0.0329,-0.0337,-0.0345,-0.0408,-0.0374,-0.0378,-0.038,-0.0526,-0.0527,-0.0529,0,0,0,0,0,0,-0.0164,-0.0167,-0.0207,-0.0196,-0.0202,-0.0223,-0.0229,-0.0234,-0.0254,-0.0286,-0.0293,-0.0262,-0.0329,-0.0339,-0.0364,-0.0411,-0.038,-0.0384,-0.0524,-0.0526,-0.0528,-0.0529,0,0,0,0,0,0,-0.0163,-0.0167,-0.0175,-0.0195,-0.0201,-0.024,-0.0229,-0.0235,-0.0251,-0.0253,-0.0301,-0.0308,-0.0329,-0.0357,-0.0368,-0.0416,-0.0387,-0.0522,-0.0525,-0.0528,-0.0527,-0.0531,-0.0534,0,0,0,0,0,-0.0162,-0.0182,-0.0176,-0.0179,-0.0209,-0.024,-0.0248,-0.0263,-0.0253,-0.0276,-0.0281,-0.0306,-0.0384,-0.036,-0.0373,-0.0424,-0.0521,-0.0524,-0.0527,-0.0525,-0.053,-0.0534,0,0,0,0,0,0,-0.0187,-0.0186,-0.018,-0.0201,-0.0219,-0.0243,-0.0266,-0.0265,-0.0291,-0.0289,-0.0308,-0.0317,-0.0357,-0.0389,-0.0363,-0.0477,-0.0465,-0.0471,-0.0459,-0.0464,-0.0467,-0.0491,-0.039,0,0,0,0,0,-0.019,-0.0201,-0.0205,-0.0227,-0.0233,-0.0247,-0.0262,-0.027,-0.0286,-0.0297,-0.0325,-0.0358,-0.0385,-0.0417,-0.0448,-0.0509,-0.0491,-0.0556,-0.056,-0.0562,-0.0591,-0.0584,-0.0588,-0.054,-0.054,-0.054,0,0,-0.0205,-0.0207,-0.0214,-0.0232,-0.0247,-0.0254,-0.0257,-0.0285,-0.0295,-0.0304,-0.0339,-0.0362,-0.0397,-0.0452,-0.0479,-0.0485,-0.0555,-0.0566,-0.0568,-0.0597,-0.0588,-0.0592,-0.0596,-0.0542,-0.0542,-0.0541,0,0,-0.0227,-0.0242,-0.0246,-0.0258,-0.0272,-0.0279,-0.0282,-0.0307,-0.0328,-0.0363,-0.036,-0.0403,-0.0468,-0.0499,-0.052,-0.0568,-0.0558,-0.0593,-0.0653,-0.0643,-0.0647,-0.065,-0.0574,-0.057,-0.0614,-0.0614,-0.0614,0,-0.0239,-0.0246,-0.0259,-0.0262,-0.0269,-0.0282,-0.0286,-0.0312,-0.0343,-0.0351,-0.0379,-0.0452,-0.0495,-0.0534,-0.0576,-0.0579,-0.0548,-0.0626,-0.0645,-0.0649,-0.0652,-0.0574,-0.057,-0.0615,-0.0615,-0.0615,-0.0615,0,-0.0248,-0.0259,-0.0272,-0.0266,-0.028,-0.0301,-0.0313,-0.0338,-0.0366,-0.0378,-0.0434,-0.0499,-0.0537,-0.0582,-0.0612,-0.0666,-0.0621,-0.0627,-0.0626,-0.0656,-0.0572,-0.0567,-0.0615,-0.0615,-0.0615,-0.0615,0,0,-0.0265,-0.027,-0.0281,-0.0271,-0.0286,-0.0296,-0.0315,-0.0329,-0.0326,-0.0405,-0.0414,-0.0534,-0.0562,-0.0593,-0.0635,-0.0692,-0.0691,-0.0701,-0.0701,-0.0611,-0.0619,-0.061,-0.0603,-0.0696,-0.0697,-0.0698,-0.0527,0,-0.0269,-0.0266,-0.0276,-0.0281,-0.0274,-0.0292,-0.0307,-0.032,-0.0347,-0.0362,-0.0441,-0.047,-0.056,-0.0592,-0.0658,-0.0683,-0.0691,-0.0734,-0.0619,-0.0615,-0.0593,-0.0604,-0.0701,-0.0524,-0.0523,-0.0522,-0.0522,0,-0.027,-0.0267,-0.0269,-0.0267,-0.027,-0.0274,-0.0281,-0.0297,-0.0309,-0.0336,-0.0378,-0.0406,-0.0491,-0.0566,-0.062,-0.0639,-0.0641,-0.0669,-0.0661,-0.0665,-0.0603,-0.0507,-0.0514,-0.0515,-0.0515,-0.0516,-0.0516,0,-0.0259,-0.0264,-0.0266,-0.0268,-0.027,-0.0276,-0.0276,-0.0283,-0.0297,-0.0299,-0.0308,-0.0362,-0.0407,-0.0449,-0.053,-0.0562,-0.0565,-0.0576,-0.0543,-0.0536,-0.059,-0.059,-0.0587,-0.0587,-0.0587,-0.0588,-0.0588,0,-0.0259,-0.0261,-0.0259,-0.0261,-0.0264,-0.0261,-0.0264,-0.0269,-0.0271,-0.0285,-0.0292,-0.0331,-0.04,-0.0411,-0.0466,-0.0492,-0.0481,-0.0558,-0.0515,-0.0585,-0.0587,-0.0582,-0.0584,-0.0581,-0.0583,-0.0584,-0.0585,0,-0.0261,-0.0263,-0.0257,-0.0257,-0.0258,-0.026,-0.0261,-0.0266,-0.0257,-0.0271,-0.0273,-0.0293,-0.0322,-0.0338,-0.0381,-0.0403,-0.0421,-0.0413,-0.0432,-0.0391,-0.0395,-0.0399,-0.0341,-0.034,-0.0339,-0.0338,-0.0337,0,-0.0261,-0.0255,-0.0258,-0.0269,-0.0276,-0.0273,-0.0284,-0.0271,-0.0278,-0.028,-0.0298,-0.0289,-0.0313,-0.0315,-0.0351,-0.0327,-0.0366,-0.0303,-0.044,-0.0417,-0.038,-0.0386,-0.0391,-0.0336,-0.0335,-0.0335,-0.0335,0,-0.0255,-0.0262,-0.0262,-0.0282,-0.0296,-0.0315,-0.0318,-0.0317,-0.0321,-0.03,-0.0326,-0.0318,-0.032,-0.0338,-0.0288,-0.0308,-0.032,-0.0294,-0.0297,-0.0426,-0.0409,-0.0375,-0.0382,-0.0331,-0.0332,-0.0332,-0.0332,0,-0.0253,-0.0254,-0.0263,-0.0285,-0.0318,-0.0364,-0.0355,-0.0367,-0.0366,-0.0354,-0.0371,-0.0362,-0.0351,-0.0325,-0.0313,-0.0292,-0.0323,-0.0329,-0.0332,-0.0336,-0.0424,-0.0408,-0.0299,0,0,0,0,0,-0.0245,-0.0248,-0.0266,-0.0298,-0.0347,-0.0373,-0.0394,-0.0385,-0.037,-0.0396,-0.0378,-0.0386,-0.0364,-0.0354,-0.0337,-0.0313,-0.0317,-0.029,-0.0325,-0.0311,-0.0316,-0.0426,0,0,0,0,0,0,-0.0244,-0.025,-0.0257,-0.0321,-0.0357,-0.0413,-0.0435,-0.0429,-0.0434,-0.0413,-0.0407,-0.0375,-0.0357,-0.0377,-0.0336,-0.0327,-0.0345,-0.027,-0.0269,-0.0309,-0.0313,-0.0316,-0.0431,0,0,0,0,0]}]]